Location: Dackenheim
(49.5215°N, 8.1854°E)
Time: 04:09:16
(UTC+00:00)

AO-85 - Pass Details

Date: 16 March 2026
Orbit: 507 x 686 km, 64.8° (Epoch: 13 April)

Event Time Altitude Azimuth Distance (km) Brightness Sun altitude
Exits shadow 02:40:01 18° 113° (ESE) 1,332 ? -28.3°
Drops below altitude 10° 02:42:37 10° 71° (ENE) 1,757 ? -28.0°
Sets 02:45:15 0° 52° (NE) 2,633 ? -27.6°
